[[{"header":{"parameterUnit":"m.s-1","parameterCategory":1,"la1":30.2991,"la2":30.254,"lo1":-89.0895,"lo2":-89.0444,"dy":0.0017,"dx":0.0017,"nx":28,"ny":28,"refTime":"2025-12-02T03:00:00:Z","depth":0,"parameterNumber":2,"parameterNumberName":"U-component_of_WINDS"},"data":[0,0,0,0,0,0,0,0,0,0,0,0,0,0,0,0,0,0,0,0,0,0,0,0,0,0,0,0,0,0,0,0,0,0,0,0,0,0,0,0,0,0,0,0,0,0,0,0,0,0,0,0,0,0,0,0,0,0,2.4232,2.4232,0,2.4222,2.4222,2.4222,2.4185,2.4184,2.4183,2.4182,2.417,2.4171,2.4171,0,0,0,0,0,0,0,0,0,0,0,0,0,2.422,2.4221,2.4232,2.4232,2.4232,2.4222,2.4222,2.4222,2.4185,2.4184,2.4183,2.4182,2.417,2.4171,2.4171,0,0,0,0,0,0,0,0,0,0,0,0,0,2.4219,2.4221,2.4232,2.4212,2.421,2.4222,2.4222,2.4221,2.4185,2.4184,2.4182,2.4181,2.417,2.4171,2.4171,2.4201,0,0,2.4174,2.4174,0,0,0,0,0,0,0,0,2.4219,2.422,2.4215,2.4214,2.4212,2.4203,2.4213,2.4215,2.4185,2.4195,2.4182,2.4181,2.4182,2.4182,2.4183,2.42,2.42,2.4174,2.4174,2.4174,2.4175,0,0,0,0,0,0,0,2.4219,2.422,2.4228,2.4215,2.4213,2.4204,2.4203,2.4213,2.4196,2.4194,2.4191,2.419,2.4181,2.4182,2.4182,2.42,2.4174,2.4174,2.4175,2.4175,2.4243,2.4245,0,0,0,0,0,0,2.4222,2.422,2.4228,2.4228,2.4212,2.4205,2.4204,2.4207,2.4195,2.4192,2.4191,2.4189,2.4182,2.4181,2.4182,2.4216,2.4174,2.4175,2.4175,2.4242,2.4244,2.4245,0,0,0,0,0,0,2.4222,2.4223,2.4229,2.4223,2.4223,2.4207,2.4211,2.4208,2.4209,2.4194,2.419,2.4196,2.4181,2.4181,2.4197,2.4215,2.4175,2.4176,2.424,2.4242,2.4244,2.4286,0,0,0,0,0,0,2.4222,2.4224,2.4234,2.4224,2.4224,2.4244,2.4212,2.4208,2.421,2.4206,2.4197,2.4194,2.418,2.4196,2.4198,2.4216,2.4177,2.4238,2.4241,2.4244,2.4283,2.4289,2.4294,0,0,0,0,0,2.4222,2.4246,2.4235,2.4236,2.4237,2.4245,2.4245,2.4228,2.4212,2.4223,2.4213,2.4194,2.4213,2.4198,2.4199,2.4218,2.4237,2.424,2.4243,2.428,2.4288,2.4294,0,0,0,0,0,0,2.4258,2.4244,2.4232,2.4253,2.4251,2.4239,2.4252,2.4237,2.4239,2.4235,2.4214,2.4212,2.4232,2.4226,2.421,2.4247,2.4222,2.4226,2.425,2.4257,2.4263,2.4263,2.4177,0,0,0,0,0,2.4269,2.4277,2.4264,2.4284,2.4284,2.4268,2.4271,2.4259,2.4255,2.4254,2.4246,2.4243,2.4249,2.4252,2.4256,2.4282,2.428,2.4296,2.4302,2.4307,2.431,2.4324,2.4332,2.4255,2.4255,2.4255,0,0,2.429,2.4283,2.429,2.4291,2.4288,2.4297,2.4267,2.4278,2.4285,2.4255,2.427,2.4265,2.426,2.4282,2.4291,2.4278,2.4331,2.4311,2.4315,2.4315,2.4328,2.4336,2.4342,2.4257,2.4257,2.4257,0,0,2.4334,2.433,2.4347,2.4344,2.434,2.433,2.4335,2.4326,2.4321,2.4336,2.4315,2.4323,2.4333,2.4331,2.4331,2.4378,2.4361,2.438,2.441,2.4425,2.4431,2.4436,2.4453,2.446,2.4383,2.4383,2.4383,0,2.4361,2.4374,2.4357,2.437,2.4371,2.4347,2.4364,2.4363,2.436,2.4362,2.4348,2.4361,2.4356,2.4378,2.4389,2.439,2.4395,2.438,2.4431,2.4436,2.4441,2.4457,2.4464,2.4386,2.4385,2.4385,2.4385,0,2.4408,2.4418,2.4432,2.4431,2.4435,2.445,2.4435,2.4441,2.4429,2.4421,2.4438,2.4432,2.4435,2.4439,2.4427,2.446,2.4452,2.4435,2.441,2.4451,2.4466,2.4472,2.4389,2.4388,2.4387,2.4387,0,0,2.4473,2.4464,2.447,2.447,2.4465,2.4472,2.4487,2.4491,2.4496,2.4496,2.4508,2.4518,2.4503,2.4504,2.4491,2.4504,2.4543,2.4486,2.4485,2.4497,2.458,2.4593,2.46,2.4532,2.4533,2.4534,2.4581,0,2.4515,2.4539,2.4526,2.4552,2.4562,2.4539,2.4552,2.4551,2.4544,2.4552,2.4544,2.4552,2.4531,2.4532,2.4543,2.4536,2.4559,2.4532,2.4543,2.4544,2.4545,2.4608,2.4621,2.4665,2.4586,2.4587,2.4588,0,2.4567,2.4571,2.4598,2.4593,2.4597,2.4609,2.4612,2.4619,2.4618,2.4612,2.4615,2.46,2.4614,2.459,2.461,2.4592,2.4597,2.4594,2.4595,2.4595,2.4568,2.461,2.4678,2.4685,2.4597,2.4596,2.4595,0,2.4612,2.4624,2.4642,2.4643,2.4637,2.4647,2.4645,2.4642,2.4646,2.4649,2.4652,2.4657,2.466,2.4664,2.4651,2.4635,2.4674,2.4648,2.467,2.467,2.4678,2.4678,2.4749,2.4681,2.4681,2.4681,2.4681,0,2.4661,2.4679,2.4663,2.4674,2.4694,2.4679,2.4699,2.4695,2.4693,2.4704,2.4685,2.4695,2.4678,2.4687,2.4677,2.4696,2.4697,2.4694,2.4691,2.4695,2.4696,2.4697,2.4694,2.4683,2.4682,2.4682,2.4682,0,2.4714,2.4704,2.4723,2.4717,2.4716,2.4731,2.4726,2.4737,2.473,2.4744,2.4746,2.4735,2.4745,2.4733,2.4741,2.4735,2.4761,2.4753,2.4762,2.4759,2.4782,2.478,2.4856,2.4866,2.4792,2.4793,2.4793,0,2.4746,2.4759,2.4756,2.4762,2.4761,2.4771,2.4776,2.4762,2.4767,2.4768,2.4779,2.4787,2.4793,2.481,2.4803,2.481,2.4802,2.4828,2.4803,2.4808,2.4803,2.4803,2.4804,2.4833,2.4834,2.4835,2.4836,0,2.4803,2.4798,2.4805,2.4812,2.4818,2.4822,2.4825,2.4831,2.4817,2.4824,2.4834,2.4839,2.4849,2.4858,2.4863,2.4861,2.4846,2.4844,2.4849,2.4854,2.4858,2.4857,2.4776,2.4842,2.4841,2.4841,2.484,2.484,2.4847,2.4858,2.4858,2.4868,2.4869,2.4872,2.4883,2.4878,2.4886,2.4893,2.4885,2.4898,2.4898,2.4904,2.4904,2.4914,2.4903,2.4911,2.4913,2.4915,2.4919,2.4857,2.4915,2.4915,2.4915,2.4914,2.4914,0,2.4904,2.4903,2.4912,2.4917,2.4925,2.4912,2.4914,2.4922,2.4934,2.4935,2.4942,2.4955,2.4964,2.4959,2.4967,2.4976,2.497,2.4979,2.4978,2.4978,2.4928,2.4922,2.4984,2.4984,2.4984,2.4984,2.4984,2.4984,2.4934,2.4954,2.4949,2.497,2.4969,2.4982,2.4985,2.4988,2.499,2.5005,2.5013,2.501,2.5009,2.5017,2.5025,2.5024,2.5028,2.5039,2.5035,2.4988,2.4981,2.4975,2.497,2.504,2.504,2.5084,2.5085,2.5085]},{"header":{"parameterUnit":"m.s-1","parameterCategory":1,"la1":30.2991,"la2":30.254,"lo1":-89.0895,"lo2":-89.0444,"dy":0.0017,"dx":0.0017,"nx":28,"ny":28,"refTime":"2025-12-02T03:00:00:Z","depth":0,"parameterNumber":3,"parameterNumberName":"V-component_of_WINDS"},"data":[0,0,0,0,0,0,0,0,0,0,0,0,0,0,0,0,0,0,0,0,0,0,0,0,0,0,0,0,0,0,0,0,0,0,0,0,0,0,0,0,0,0,0,0,0,0,0,0,0,0,0,0,0,0,0,0,0,0,-5.8112,-5.8113,0,-5.822,-5.8221,-5.8222,-5.8214,-5.8212,-5.8211,-5.8209,-5.8314,-5.8318,-5.8323,0,0,0,0,0,0,0,0,0,0,0,0,0,-5.7897,-5.7901,-5.8112,-5.8114,-5.8115,-5.8219,-5.8221,-5.8222,-5.8214,-5.8212,-5.821,-5.8209,-5.8313,-5.8318,-5.8323,0,0,0,0,0,0,0,0,0,0,0,0,0,-5.7996,-5.7902,-5.8112,-5.8124,-5.8126,-5.8219,-5.8221,-5.8223,-5.8215,-5.8212,-5.821,-5.8208,-5.8311,-5.8317,-5.8324,-5.8411,0,0,-5.8343,-5.8346,0,0,0,0,0,0,0,0,-5.799,-5.8004,-5.812,-5.8123,-5.8125,-5.8201,-5.8184,-5.8286,-5.8215,-5.8181,-5.8209,-5.8206,-5.8278,-5.8287,-5.8312,-5.8416,-5.842,-5.8344,-5.8348,-5.835,-5.8352,0,0,0,0,0,0,0,-5.7984,-5.7999,-5.8154,-5.8122,-5.8125,-5.8122,-5.8134,-5.8203,-5.8241,-5.8184,-5.8183,-5.8196,-5.8279,-5.8306,-5.8315,-5.8422,-5.8344,-5.8349,-5.8353,-5.8356,-5.8605,-5.8607,0,0,0,0,0,0,-5.7975,-5.7994,-5.8151,-5.8158,-5.8051,-5.8128,-5.8141,-5.8179,-5.8241,-5.8248,-5.8198,-5.8196,-5.8296,-5.8307,-5.8318,-5.8426,-5.835,-5.8356,-5.836,-5.8602,-5.8605,-5.8608,0,0,0,0,0,0,-5.797,-5.7989,-5.8147,-5.8076,-5.8096,-5.8135,-5.8177,-5.8182,-5.821,-5.8252,-5.8258,-5.8219,-5.8295,-5.8309,-5.8389,-5.843,-5.8359,-5.8365,-5.8599,-5.8603,-5.8607,-5.8642,0,0,0,0,0,0,-5.7964,-5.7987,-5.8021,-5.8077,-5.81,-5.8217,-5.818,-5.8186,-5.8221,-5.8219,-5.8273,-5.828,-5.8294,-5.8379,-5.8395,-5.8437,-5.837,-5.8595,-5.8601,-5.8606,-5.8637,-5.8647,-5.8655,0,0,0,0,0,-5.7956,-5.8025,-5.8023,-5.8042,-5.8143,-5.8219,-5.8232,-5.8248,-5.8225,-5.8259,-5.8287,-5.8278,-5.8423,-5.8388,-5.8405,-5.845,-5.8593,-5.8599,-5.8605,-5.8633,-5.8645,-5.8654,0,0,0,0,0,0,-5.7971,-5.8032,-5.8031,-5.812,-5.8165,-5.8217,-5.8261,-5.826,-5.8311,-5.8306,-5.8323,-5.8335,-5.8416,-5.8441,-5.84,-5.8539,-5.8504,-5.8515,-5.852,-5.8531,-5.854,-5.8532,-5.8375,0,0,0,0,0,-5.7985,-5.8043,-5.8093,-5.8166,-5.8189,-5.8222,-5.8255,-5.8264,-5.8311,-5.8329,-5.8362,-5.8406,-5.8462,-5.8497,-5.8551,-5.8641,-5.8653,-5.868,-5.8689,-5.8696,-5.8705,-5.8756,-5.8769,-5.8629,-5.8629,-5.8629,0,0,-5.8013,-5.8054,-5.8089,-5.817,-5.8206,-5.8265,-5.8237,-5.83,-5.8344,-5.8338,-5.8416,-5.8442,-5.8492,-5.8578,-5.8617,-5.8601,-5.8746,-5.8704,-5.8709,-5.8714,-5.8764,-5.8777,-5.8789,-5.8633,-5.8632,-5.8632,0,0,-5.8096,-5.8133,-5.8199,-5.8236,-5.8292,-5.8314,-5.833,-5.8384,-5.8402,-5.8481,-5.8478,-5.853,-5.8625,-5.8662,-5.8693,-5.8793,-5.8787,-5.8809,-5.8855,-5.8905,-5.8916,-5.8926,-5.8963,-5.8975,-5.8818,-5.8818,-5.8818,0,-5.8124,-5.8214,-5.8233,-5.8298,-5.8334,-5.8334,-5.8402,-5.8436,-5.8505,-5.853,-5.8511,-5.8633,-5.8666,-5.8762,-5.8787,-5.8811,-5.883,-5.8803,-5.8913,-5.8923,-5.8933,-5.8968,-5.8982,-5.882,-5.882,-5.882,-5.8819,0,-5.8247,-5.8309,-5.8356,-5.8426,-5.8467,-5.8533,-5.8561,-5.8601,-5.8607,-5.8631,-5.8712,-5.8753,-5.8816,-5.8839,-5.8844,-5.8936,-5.8925,-5.8909,-5.8875,-5.8948,-5.8982,-5.8995,-5.8824,-5.8823,-5.8822,-5.8821,0,0,-5.8339,-5.8422,-5.8439,-5.8472,-5.8534,-5.8582,-5.8648,-5.8712,-5.8746,-5.8794,-5.885,-5.8932,-5.892,-5.8955,-5.8965,-5.9009,-5.9087,-5.8988,-5.899,-5.9006,-5.9192,-5.9203,-5.9219,-5.9084,-5.9087,-5.9089,-5.9188,0,-5.8429,-5.8548,-5.8568,-5.8672,-5.8731,-5.8733,-5.8791,-5.8835,-5.8859,-5.8912,-5.8938,-5.8996,-5.8975,-5.8996,-5.904,-5.9068,-5.9125,-5.9061,-5.9136,-5.9138,-5.9124,-5.9236,-5.9248,-5.9339,-5.9201,-5.9203,-5.9205,0,-5.8549,-5.8604,-5.8714,-5.8772,-5.8797,-5.8849,-5.891,-5.896,-5.9011,-5.9026,-5.9067,-5.9073,-5.9141,-5.9104,-5.9199,-5.9156,-5.9187,-5.9206,-5.921,-5.9218,-5.9176,-5.9247,-5.9369,-5.9383,-5.9225,-5.9224,-5.9222,0,-5.8608,-5.8709,-5.8788,-5.8816,-5.8885,-5.8921,-5.8951,-5.9,-5.9038,-5.9091,-5.9116,-5.9175,-5.9208,-5.9253,-5.9275,-5.9246,-5.9369,-5.9333,-5.9383,-5.9382,-5.9408,-5.9406,-5.9537,-5.9428,-5.9427,-5.9427,-5.9427,0,-5.8706,-5.8774,-5.8816,-5.8865,-5.8941,-5.8964,-5.9038,-5.9067,-5.9111,-5.9166,-5.917,-5.9221,-5.9246,-5.9301,-5.9318,-5.9394,-5.9409,-5.9422,-5.9426,-5.9422,-5.9421,-5.9443,-5.9437,-5.9431,-5.943,-5.9429,-5.9429,0,-5.8783,-5.8815,-5.8902,-5.8961,-5.8978,-5.9031,-5.9081,-5.9129,-5.9154,-5.9223,-5.924,-5.9279,-5.9344,-5.937,-5.9448,-5.946,-5.9548,-5.9547,-5.9532,-5.9533,-5.9581,-5.9577,-5.9732,-5.9754,-5.9629,-5.963,-5.9631,0,-5.8844,-5.8897,-5.8963,-5.9001,-5.9033,-5.9093,-5.9133,-5.9158,-5.9199,-5.9262,-5.9302,-5.9368,-5.9421,-5.9524,-5.9558,-5.9619,-5.9619,-5.967,-5.9628,-5.9623,-5.9621,-5.9618,-5.9624,-5.9677,-5.9678,-5.9679,-5.968,0,-5.895,-5.8963,-5.9021,-5.9086,-5.9134,-5.9185,-5.9234,-5.9265,-5.9297,-5.9343,-5.9411,-5.9452,-5.9534,-5.9599,-5.9662,-5.9692,-5.9692,-5.9693,-5.9708,-5.9704,-5.9694,-5.9702,-5.9553,-5.9689,-5.9688,-5.9687,-5.9687,-5.9687,-5.9021,-5.9069,-5.9124,-5.9189,-5.923,-5.9277,-5.9326,-5.9358,-5.9416,-5.9486,-5.9497,-5.9569,-5.962,-5.9705,-5.9738,-5.9794,-5.9781,-5.9802,-5.9808,-5.9813,-5.9817,-5.9686,-5.9806,-5.9805,-5.9805,-5.9805,-5.9805,0,-5.9128,-5.9164,-5.9224,-5.9295,-5.9347,-5.9344,-5.94,-5.9443,-5.9507,-5.9556,-5.961,-5.9688,-5.9752,-5.9793,-5.9857,-5.9894,-5.9896,-5.991,-5.9908,-5.9915,-5.9824,-5.9806,-5.9908,-5.9908,-5.9908,-5.9908,-5.9908,-5.9908,-5.9189,-5.9271,-5.9292,-5.9394,-5.9429,-5.9502,-5.9534,-5.9578,-5.9617,-5.9706,-5.976,-5.9787,-5.9832,-5.99,-5.9959,-5.9969,-5.9993,-6.0008,-6.0018,-5.9932,-5.9921,-5.9911,-5.9894,-6.0013,-6.0013,-6.0104,-6.0105,-6.0105]}]]